EW6254 Weather Reports


Display with metric or nautical units.
time (UTC)temp
F
wind
direction
speed
MPH
gust
MPH
rain 1hr
in
rain 24hr
in
rain mn
in
humidity
%
barometer
mb
20170324020525 71 0 8.0 18.0 0.00 0.00 0.00 53 1003.1
20170324015511 71 0 8.0 18.0 0.00 0.00 0.00 53 1002.6
20170324014444 71 0 7.0 18.0 0.00 0.00 0.00 54 1002.5
20170324013501 71 0 5.0 11.0 0.00 0.00 0.00 55 1002.9
20170324012514 71 0 3.0 14.0 0.00 0.00 0.00 55 1003.1
20170324011511 71 0 3.0 14.0 0.00 0.00 0.00 55 1003.5
20170324010523 71 0 4.0 11.0 0.00 0.00 0.00 55 1003.2
20170324005517 71 0 4.0 11.0 0.00 0.00 0.00 55 1002.7
20170324004538 71 0 2.0 8.0 0.00 0.00 0.00 55 1003.0
20170324003528 71 0 3.0 14.0 0.00 0.00 0.00 55 1002.9
20170324002550 72 0 4.0 14.0 0.00 0.00 0.00 54 1003.2
20170324001518 72 0 3.0 10.0 0.00 0.00 0.00 54 1003.3
20170324000534 72 0 3.0 10.0 0.00 0.00 0.00 54 1003.0
20170323235533 72 0 3.0 11.0 0.00 0.00 0.00 54 1003.1
20170323234549 72 0 5.0 15.0 0.00 0.00 0.00 53 1003.1
20170323233530 72 0 6.0 16.0 0.00 0.00 0.00 53 1003.0
20170323232531 73 0 5.0 17.0 0.00 0.00 0.00 52 1003.1
20170323231549 73 234 7.0 17.0 0.00 0.00 0.00 52 1002.9
20170323230552 73 173 5.0 15.0 0.00 0.00 0.00 52 1003.3
20170323225600 73 148 5.0 14.0 0.00 0.00 0.00 52 1003.3
20170323224537 73 177 8.0 22.0 0.00 0.00 0.00 51 1003.6
20170323223558 73 178 8.0 22.0 0.00 0.00 0.00 52 1003.6
20170323222545 73 208 7.0 20.0 0.00 0.00 0.00 52 1003.6
20170323221547 74 158 7.0 20.0 0.00 0.00 0.00 52 1003.7
20170323220553 74 219 6.0 20.0 0.00 0.00 0.00 52 1003.7
20170323215606 73 150 5.0 14.0 0.00 0.00 0.00 54 1003.9
20170323214601 72 153 3.0 9.0 0.00 0.00 0.00 55 1004.1
20170323213525 71 150 5.0 14.0 0.00 0.00 0.00 56 1004.3
20170323212526 71 173 6.0 17.0 0.00 0.00 0.00 56 1004.5
20170323211524 70 154 8.0 17.0 0.00 0.00 0.00 56 1004.5
20170323210515 69 174 6.0 13.0 0.00 0.00 0.00 57 1004.8
20170323205439 69 165 4.0 14.0 0.00 0.00 0.00 57 1005.3
20170323204412 68 153 6.0 14.0 0.00 0.00 0.00 57 1005.7
20170323203412 67 147 4.0 14.0 0.00 0.00 0.00 57 1005.9
20170323202343 67 0 6.0 14.0 0.00 0.00 0.00 57 1006.2
20170323201402 67 163 7.0 14.0 0.00 0.00 0.00 57 1006.3
20170323200413 66 0 6.0 13.0 0.00 0.00 0.00 59 1006.8
20170323195410 66 0 5.0 17.0 0.00 0.00 0.00 59 1007.1
20170323194357 65 0 6.0 17.0 0.00 0.00 0.00 58 1007.3
20170323193346 65 0 5.0 12.0 0.00 0.00 0.00 57 1007.4
20170323192327 65 0 4.0 13.0 0.00 0.00 0.00 56 1008.3
20170323191329 65 0 6.0 16.0 0.00 0.00 0.00 55 1008.2
20170323190348 64 0 6.0 16.0 0.00 0.00 0.00 54 1008.0
20170323185312 62 0 8.0 19.0 0.00 0.00 0.00 54 1007.7
20170323184313 62 0 8.0 19.0 0.00 0.00 0.00 52 1007.8
20170323183245 61 0 8.0 21.0 0.00 0.00 0.00 52 1007.9
20170323182234 62 0 8.0 21.0 0.00 0.00 0.00 51 1008.4
20170323181250 62 0 7.0 18.0 0.00 0.00 0.00 49 1008.6
20170323180212 61 191 9.0 27.0 0.00 0.00 0.00 51 1009.1
20170323175156 59 0 11.0 27.0 0.00 0.00 0.00 51 1009.4
20170323174202 59 0 8.0 21.0 0.00 0.00 0.00 51 1009.8
20170323173154 57 0 8.0 21.0 0.00 0.00 0.00 53 1010.0
20170323172147 55 0 10.0 21.0 0.00 0.00 0.00 55 1010.3
20170323171150 54 155 10.0 21.0 0.00 0.00 0.00 56 1010.8
20170323170148 53 171 9.0 22.0 0.00 0.00 0.00 56 1011.0
20170323165128 52 205 11.0 22.0 0.00 0.00 0.00 55 1011.7
20170323164144 52 179 10.0 19.0 0.00 0.00 0.00 55 1011.9
20170323163121 52 194 9.0 19.0 0.00 0.00 0.00 55 1012.0
20170323162111 51 144 12.0 21.0 0.00 0.00 0.00 56 1012.0
20170323161120 51 154 9.0 21.0 0.00 0.00 0.00 56 1012.2
20170323160122 50 147 9.0 20.0 0.00 0.00 0.00 56 1012.4
20170323155145 50 155 11.0 22.0 0.00 0.00 0.00 57 1012.8
20170323154148 50 152 8.0 22.0 0.00 0.00 0.00 58 1013.0
20170323153133 49 136 8.0 21.0 0.00 0.00 0.00 60 1013.2
20170323152125 49 163 9.0 21.0 0.00 0.00 0.00 61 1013.3
20170323151108 48 161 10.0 19.0 0.00 0.00 0.00 62 1013.5
20170323150041 48 177 9.0 18.0 0.00 0.00 0.00 63 1013.6
20170323145037 47 157 9.0 17.0 0.00 0.00 0.00 63 1013.9
20170323144058 47 161 8.0 16.0 0.00 0.00 0.00 63 1013.8
20170323143021 47 150 8.0 14.0 0.00 0.00 0.00 63 1014.1
20170323142038 46 157 8.0 16.0 0.00 0.00 0.00 62 1014.2
20170323141038 46 136 8.0 16.0 0.00 0.00 0.00 61 1014.5
20170323140038 46 156 8.0 16.0 0.00 0.00 0.00 60 1014.8
20170323135013 46 154 8.0 16.0 0.00 0.00 0.00 60 1015.0
20170323134033 46 169 8.0 14.0 0.00 0.00 0.00 59 1015.1
20170323133015 46 156 6.0 17.0 0.00 0.00 0.00 58 1015.2
20170323131941 46 167 9.0 18.0 0.00 0.00 0.00 58 1015.0
20170323130942 46 174 8.0 19.0 0.00 0.00 0.00 56 1015.1
20170323125949 45 143 9.0 20.0 0.00 0.00 0.00 55 1015.4
20170323124917 45 148 7.0 20.0 0.00 0.00 0.00 54 1015.3
20170323123848 45 136 8.0 19.0 0.00 0.00 0.00 53 1015.6
20170323122904 45 164 8.0 17.0 0.00 0.00 0.00 51 1015.7
20170323121845 45 159 7.0 17.0 0.00 0.00 0.00 50 1015.8
20170323120855 45 155 6.0 17.0 0.00 0.00 0.00 49 1015.9
20170323115852 44 157 6.0 14.0 0.00 0.00 0.00 48 1016.1
20170323114903 44 103 6.0 14.0 0.00 0.00 0.00 48 1016.2
20170323113847 44 113 6.0 13.0 0.00 0.00 0.00 47 1016.1
20170323112852 44 159 6.0 15.0 0.00 0.00 0.00 47 1016.5
20170323111856 44 133 4.0 15.0 0.00 0.00 0.00 46 1016.5
20170323110832 44 136 6.0 13.0 0.00 0.00 0.00 46 1016.5
20170323105851 44 132 5.0 14.0 0.00 0.00 0.00 46 1016.6
20170323104913 44 185 6.0 16.0 0.00 0.00 0.00 46 1016.8
20170323103936 44 179 7.0 16.0 0.00 0.00 0.00 45 1016.9
20170323102951 44 174 5.0 12.0 0.00 0.00 0.00 45 1017.2
20170323101959 44 152 5.0 12.0 0.00 0.00 0.00 46 1017.2
20170323101015 44 127 4.0 14.0 0.00 0.00 0.00 46 1017.3
20170323100022 44 150 6.0 14.0 0.00 0.00 0.00 45 1017.5
20170323095018 44 142 5.0 12.0 0.00 0.00 0.00 45 1017.5
20170323094028 44 139 5.0 11.0 0.00 0.00 0.00 46 1017.5
20170323093016 44 136 7.0 15.0 0.00 0.00 0.00 45 1017.8
20170323091942 44 141 5.0 15.0 0.00 0.00 0.00 46 1017.8
20170323090958 44 178 5.0 13.0 0.00 0.00 0.00 46 1018.1
20170323085930 44 134 6.0 13.0 0.00 0.00 0.00 47 1018.1
20170323084926 44 149 5.0 12.0 0.00 0.00 0.00 47 1018.6
20170323083902 44 115 6.0 12.0 0.00 0.00 0.00 47 1018.6
20170323082859 44 103 5.0 13.0 0.00 0.00 0.00 48 1018.8
20170323081837 44 121 6.0 13.0 0.00 0.00 0.00 48 1018.9
20170323080808 44 132 6.0 13.0 0.00 0.00 0.00 48 1019.0
20170323075810 44 148 5.0 11.0 0.00 0.00 0.00 48 1019.1
20170323074801 44 180 6.0 14.0 0.00 0.00 0.00 49 1019.4
20170323073737 44 150 6.0 13.0 0.00 0.00 0.00 49 1019.9
20170323072755 44 163 6.0 13.0 0.00 0.00 0.00 49 1019.9
20170323071754 44 165 5.0 16.0 0.00 0.00 0.00 50 1019.9
20170323070815 44 144 8.0 16.0 0.00 0.00 0.00 50 1020.1
20170323065757 44 178 7.0 15.0 0.00 0.00 0.00 50 1020.0
20170323064756 44 162 7.0 15.0 0.00 0.00 0.00 50 1020.0
20170323063743 44 175 7.0 16.0 0.00 0.00 0.00 50 1020.0
20170323062709 44 150 8.0 18.0 0.00 0.00 0.00 50 1019.9
20170323061701 44 150 7.0 18.0 0.00 0.00 0.00 50 1020.1
20170323060646 44 163 8.0 18.0 0.00 0.00 0.00 50 1020.3
20170323055701 44 145 8.0 21.0 0.00 0.00 0.00 50 1020.3
20170323054647 44 167 8.0 21.0 0.00 0.00 0.00 50 1020.5
20170323053649 44 107 9.0 18.0 0.00 0.00 0.00 50 1020.5
20170323052640 44 141 8.0 18.0 0.00 0.00 0.00 50 1020.6
20170323051701 44 203 8.0 19.0 0.00 0.00 0.00 50 1020.6
20170323050711 44 165 8.0 21.0 0.00 0.00 0.00 50 1020.7
20170323045700 44 175 9.0 21.0 0.00 0.00 0.00 50 1020.8
20170323044625 44 155 8.0 18.0 0.00 0.00 0.00 50 1021.0
20170323043605 44 139 7.0 18.0 0.00 0.00 0.00 50 1021.0
20170323042615 44 134 6.0 19.0 0.00 0.00 0.00 50 1021.1
20170323041549 44 167 5.0 19.0 0.00 0.00 0.00 50 1021.2
20170323040520 44 173 7.0 17.0 0.00 0.00 0.00 50 1021.3
20170323035542 44 142 6.0 18.0 0.00 0.00 0.00 50 1021.5
20170323034554 44 146 6.0 18.0 0.00 0.00 0.00 50 1021.7
20170323033547 44 187 9.0 18.0 0.00 0.00 0.00 50 1021.8
20170323032526 44 144 6.0 22.0 0.00 0.00 0.00 49 1021.7
20170323031530 44 109 10.0 22.0 0.00 0.00 0.00 49 1021.7
20170323030540 45 166 6.0 15.0 0.00 0.00 0.00 49 1021.7
20170323025522 45 269 7.0 18.0 0.00 0.00 0.00 49 1021.6
20170323024459 45 136 8.0 21.0 0.00 0.00 0.00 49 1021.5
20170323023440 45 173 8.0 21.0 0.00 0.00 0.00 49 1021.7
20170323022408 45 112 8.0 18.0 0.00 0.00 0.00 49 1021.8
20170323021424 45 210 6.0 18.0 0.00 0.00 0.00 49 1021.8